User: anonymous   Login
Location: Unspecified
(0.0000°N, 0.0000°E)
Time: 23:36:34
(UTC+00:00)
Language:

FAST - Orbit

View from above orbital plane
View from above orbital plane
View from above satellite
View from above satellite

Ground track
Ground track

The orbit data is extracted from the following two-line orbital elements,

1 24285U 96049A   19048.47826773  .00000530  00000-0  38762-4 0  9993
2 24285  82.9598  38.2542 1871313 126.7647 252.0267 11.53872903921246
Epoch (UTC): 17 February 2019 11:28:42
Eccentricity: 0.1871313
inclination: 82.9598°
perigee height: 346 km
apogee height: 3442 km
right ascension of ascending node: 38.2542°
argument of perigee: 126.7647°
revolutions per day: 11.53872903
mean anomaly at epoch: 252.0267°
orbit number at epoch: 92124

The dashed part of the orbit path shows where the satellite is in the earth's shadow,  

DLR